Time,TemperatureF,DewpointF,PressureIn,WindDirection,WindDirectionDegrees,WindSpeedMPH,WindSpeedGustMPH,Humidity,HourlyPrecipIn,Conditions,Clouds,dailyrainin,SoftwareType,DateUTC
2013-09-21 00:11:00,52.0,21.0,-100.00,South,171,5.0,14.0,29,0.00,,,-99.99,,2013-09-21 07:11:00,
2013-09-21 01:13:00,52.0,22.0,-100.00,SSE,167,6.0,18.0,31,0.00,,,-99.99,,2013-09-21 08:13:00,
2013-09-21 01:21:00,52.0,25.0,-100.00,South,178,6.0,19.0,34,0.00,,,-99.99,,2013-09-21 08:21:00,
2013-09-21 01:42:00,52.0,25.0,-100.00,South,171,7.0,23.0,34,0.00,,,-99.99,,2013-09-21 08:42:00,
2013-09-21 01:52:00,52.0,25.0,-100.00,South,171,7.0,23.0,34,0.00,,,-99.99,,2013-09-21 08:52:00,
2013-09-21 02:11:00,52.0,27.0,-100.00,SSE,168,8.0,21.0,37,0.00,,,-99.99,,2013-09-21 09:11:00,
2013-09-21 02:22:00,52.0,27.0,-100.00,SSE,168,8.0,21.0,37,0.00,,,-99.99,,2013-09-21 09:22:00,
2013-09-21 02:43:00,52.0,27.0,-100.00,South,184,7.0,18.0,38,0.00,,,-99.99,,2013-09-21 09:43:00,
2013-09-21 02:53:00,51.0,26.0,-100.00,South,175,5.0,17.0,37,0.00,,,-99.99,,2013-09-21 09:53:00,
2013-09-21 03:03:00,51.0,26.0,-100.00,South,175,5.0,17.0,37,0.00,,,-99.99,,2013-09-21 10:03:00,
2013-09-21 03:23:00,52.0,25.0,-100.00,South,185,7.0,17.0,35,0.00,,,-99.99,,2013-09-21 10:23:00,
2013-09-21 03:42:00,52.0,27.0,-100.00,South,188,8.0,18.0,37,0.00,,,-99.99,,2013-09-21 10:42:00,
2013-09-21 03:52:00,52.0,27.0,-100.00,South,182,8.0,20.0,38,0.00,,,-99.99,,2013-09-21 10:52:00,
2013-09-21 04:11:00,51.0,29.0,-100.00,South,182,7.0,20.0,42,0.00,,,-99.99,,2013-09-21 11:11:00,
2013-09-21 04:23:00,51.0,29.0,-100.00,South,182,7.0,20.0,42,0.00,,,-99.99,,2013-09-21 11:23:00,
2013-09-21 04:42:00,51.0,30.0,-100.00,South,189,5.0,16.0,45,0.00,,,-99.99,,2013-09-21 11:42:00,
2013-09-21 04:52:00,51.0,30.0,-100.00,South,172,5.0,14.0,45,0.00,,,-99.99,,2013-09-21 11:52:00,
2013-09-21 05:02:00,51.0,30.0,-100.00,South,172,5.0,14.0,45,0.00,,,-99.99,,2013-09-21 12:02:00,
2013-09-21 05:21:00,50.0,30.0,-100.00,South,175,6.0,15.0,46,0.00,,,-99.99,,2013-09-21 12:21:00,
2013-09-21 05:42:00,50.0,31.0,-100.00,South,175,5.0,12.0,47,0.00,,,-99.99,,2013-09-21 12:42:00,
2013-09-21 05:52:00,50.0,31.0,-100.00,South,175,5.0,12.0,47,0.00,,,-99.99,,2013-09-21 12:52:00,
2013-09-21 06:11:00,50.0,30.0,-100.00,South,175,6.0,15.0,46,0.00,,,-99.99,,2013-09-21 13:11:00,
2013-09-21 06:21:00,50.0,30.0,-100.00,SSE,165,6.0,17.0,46,0.00,,,-99.99,,2013-09-21 13:21:00,
2013-09-21 06:42:00,50.0,31.0,-100.00,SSE,165,4.0,13.0,48,0.00,,,-99.99,,2013-09-21 13:42:00,
2013-09-21 07:11:00,50.0,32.0,-100.00,South,184,6.0,16.0,49,0.00,,,-99.99,,2013-09-21 14:11:00,
2013-09-21 07:22:00,50.0,33.0,-100.00,SSW,192,5.0,14.0,51,0.00,,,-99.99,,2013-09-21 14:22:00,
2013-09-21 07:42:00,50.0,33.0,-100.00,South,188,5.0,14.0,52,0.00,,,-99.99,,2013-09-21 14:42:00,
2013-09-21 08:12:00,50.0,34.0,-100.00,South,182,5.0,13.0,53,0.00,,,-99.99,,2013-09-21 15:12:00,
2013-09-21 08:22:00,50.0,34.0,-100.00,South,191,5.0,16.0,55,0.00,,,-99.99,,2013-09-21 15:22:00,
2013-09-21 08:34:00,50.0,34.0,-100.00,South,191,5.0,16.0,55,0.00,,,-99.99,,2013-09-21 15:34:00,
2013-09-21 08:44:00,50.0,34.0,-100.00,South,191,5.0,16.0,55,0.00,,,-99.99,,2013-09-21 15:44:00,
2013-09-21 08:54:00,50.0,35.0,-100.00,South,189,5.0,17.0,57,0.00,,,-99.99,,2013-09-21 15:54:00,
2013-09-21 09:05:00,50.0,35.0,-100.00,South,189,5.0,17.0,57,0.00,,,-99.99,,2013-09-21 16:05:00,
2013-09-21 09:43:00,52.0,35.0,-100.00,SSE,164,4.0,24.0,52,0.00,,,-99.99,,2013-09-21 16:43:00,
2013-09-21 09:54:00,53.0,35.0,-100.00,SSE,148,9.0,24.0,50,0.00,,,-99.99,,2013-09-21 16:54:00,
2013-09-21 10:03:00,53.0,35.0,-100.00,SSE,148,9.0,24.0,50,0.00,,,-99.99,,2013-09-21 17:03:00,
2013-09-21 10:23:00,54.0,34.0,-100.00,SSE,158,9.0,24.0,46,0.00,,,-99.99,,2013-09-21 17:23:00,
2013-09-21 10:43:00,55.0,33.0,-100.00,SSE,150,13.0,35.0,43,0.00,,,-99.99,,2013-09-21 17:43:00,
2013-09-21 10:52:00,55.0,34.0,-100.00,SSE,158,12.0,34.0,45,0.00,,,-99.99,,2013-09-21 17:52:00,
2013-09-21 11:12:00,55.0,34.0,-100.00,South,169,11.0,30.0,45,0.00,,,-99.99,,2013-09-21 18:12:00,
2013-09-21 11:42:00,55.0,35.0,-100.00,SSE,168,12.0,29.0,47,0.00,,,-99.99,,2013-09-21 18:42:00,
2013-09-21 11:52:00,54.0,37.0,-100.00,South,179,10.0,26.0,52,0.00,,,-99.99,,2013-09-21 18:52:00,
2013-09-21 12:02:00,54.0,37.0,-100.00,South,179,10.0,26.0,52,0.00,,,-99.99,,2013-09-21 19:02:00,
2013-09-21 12:11:00,54.0,37.0,-100.00,South,179,10.0,26.0,52,0.00,,,-99.99,,2013-09-21 19:11:00,
2013-09-21 12:21:00,49.0,40.0,-100.00,South,176,10.0,26.0,71,0.00,,,-99.99,,2013-09-21 19:21:00,
2013-09-21 12:42:00,47.0,41.0,-100.00,SSE,157,9.0,24.0,80,0.00,,,-99.99,,2013-09-21 19:42:00,
2013-09-21 12:52:00,47.0,41.0,-100.00,SSE,157,9.0,24.0,80,0.00,,,-99.99,,2013-09-21 19:52:00,
2013-09-21 13:01:00,47.0,41.0,-100.00,SSE,157,9.0,24.0,80,0.00,,,-99.99,,2013-09-21 20:01:00,
2013-09-21 13:22:00,45.0,40.0,-100.00,SSW,199,7.0,19.0,81,0.00,,,-99.99,,2013-09-21 20:22:00,
2013-09-21 13:42:00,44.0,40.0,-100.00,South,174,6.0,18.0,87,0.00,,,-99.99,,2013-09-21 20:42:00,
2013-09-21 14:12:00,43.0,39.0,-100.00,SE,130,7.0,19.0,87,0.00,,,-99.99,,2013-09-21 21:12:00,
2013-09-21 14:21:00,46.0,42.0,-100.00,SSE,165,5.0,12.0,85,0.00,,,-99.99,,2013-09-21 21:21:00,
2013-09-21 14:34:00,46.0,42.0,-100.00,SSE,165,5.0,12.0,85,0.00,,,-99.99,,2013-09-21 21:34:00,
2013-09-21 14:44:00,46.0,42.0,-100.00,SSE,165,5.0,12.0,85,0.00,,,-99.99,,2013-09-21 21:44:00,
2013-09-21 14:54:00,49.0,42.0,-100.00,South,178,5.0,13.0,77,0.00,,,-99.99,,2013-09-21 21:54:00,
2013-09-21 15:05:00,49.0,42.0,-100.00,South,178,5.0,13.0,77,0.00,,,-99.99,,2013-09-21 22:05:00,
2013-09-21 15:43:00,47.0,43.0,-100.00,South,178,5.0,15.0,85,0.00,,,-99.99,,2013-09-21 22:43:00,
2013-09-21 15:53:00,46.0,40.0,-100.00,SSW,193,5.0,11.0,79,0.00,,,-99.99,,2013-09-21 22:53:00,
2013-09-21 16:12:00,46.0,41.0,-100.00,South,189,5.0,14.0,81,0.00,,,-99.99,,2013-09-21 23:12:00,
2013-09-21 16:42:00,44.0,38.0,-100.00,SSE,160,9.0,30.0,79,0.00,,,-99.99,,2013-09-21 23:42:00,
2013-09-21 16:52:00,43.0,36.0,-100.00,SSW,198,5.0,10.0,77,0.00,,,-99.99,,2013-09-21 23:52:00,
2013-09-21 17:02:00,43.0,36.0,-100.00,SSW,198,5.0,10.0,77,0.00,,,-99.99,,2013-09-22 00:02:00,
2013-09-21 17:22:00,41.0,37.0,-100.00,SE,137,3.0,8.0,86,0.00,,,-99.99,,2013-09-22 00:22:00,
2013-09-21 17:43:00,40.0,36.0,-100.00,South,174,4.0,11.0,87,0.00,,,-99.99,,2013-09-22 00:43:00,
2013-09-21 18:12:00,39.0,36.0,-100.00,South,175,5.0,11.0,90,0.00,,,-99.99,,2013-09-22 01:12:00,
2013-09-21 18:21:00,39.0,36.0,-100.00,South,175,5.0,11.0,90,0.00,,,-99.99,,2013-09-22 01:21:00,
2013-09-21 18:32:00,39.0,36.0,-100.00,South,175,5.0,11.0,90,0.00,,,-99.99,,2013-09-22 01:32:00,
2013-09-21 19:11:00,38.0,35.0,-100.00,SSE,167,6.0,15.0,90,0.00,,,-99.99,,2013-09-22 02:11:00,
2013-09-21 19:22:00,37.0,34.0,-100.00,SSE,160,5.0,17.0,90,0.00,,,-99.99,,2013-09-22 02:22:00,
2013-09-21 19:32:00,37.0,34.0,-100.00,SSE,160,5.0,17.0,90,0.00,,,-99.99,,2013-09-22 02:32:00,
2013-09-21 20:12:00,37.0,35.0,-100.00,SE,144,7.0,15.0,91,0.00,,,-99.99,,2013-09-22 03:12:00,
2013-09-21 20:22:00,37.0,34.0,-100.00,SE,133,3.0,9.0,89,0.00,,,-99.99,,2013-09-22 03:22:00,
2013-09-21 20:44:00,37.0,34.0,-100.00,SSE,152,2.0,7.0,87,0.00,,,-99.99,,2013-09-22 03:44:00,
2013-09-21 21:02:00,-999.0,-99.9,-100.00,NNE,13,3.0,7.0,-999,-99.99,,,-99.99,,2013-09-22 04:02:00,
2013-09-21 21:14:00,37.0,34.0,-100.00,NNE,13,3.0,7.0,88,0.00,,,-99.99,,2013-09-22 04:14:00,
2013-09-21 21:23:00,37.0,34.0,-100.00,SSW,209,3.0,7.0,90,0.00,,,-99.99,,2013-09-22 04:23:00,
2013-09-21 21:33:00,37.0,34.0,-100.00,SSW,209,3.0,7.0,90,0.00,,,-99.99,,2013-09-22 04:33:00,
2013-09-21 21:54:00,38.0,35.0,-100.00,SSE,154,4.0,10.0,88,0.00,,,-99.99,,2013-09-22 04:54:00,
2013-09-21 22:03:00,38.0,35.0,-100.00,SSE,154,4.0,10.0,88,0.00,,,-99.99,,2013-09-22 05:03:00,
2013-09-21 22:43:00,39.0,33.0,-100.00,SE,144,5.0,11.0,80,0.00,,,-99.99,,2013-09-22 05:43:00,
2013-09-21 22:53:00,39.0,33.0,-100.00,SSE,151,4.0,11.0,80,0.00,,,-99.99,,2013-09-22 05:53:00,
2013-09-21 23:12:00,38.0,32.0,-100.00,SSE,155,5.0,11.0,79,0.00,,,-99.99,,2013-09-22 06:12:00,
2013-09-21 23:22:00,38.0,32.0,-100.00,SSE,155,5.0,11.0,79,0.00,,,-99.99,,2013-09-22 06:22:00,
2013-09-21 23:42:00,38.0,32.0,-100.00,SE,141,5.0,13.0,78,0.00,,,-99.99,,2013-09-22 06:42:00,
2013-09-21 23:52:00,38.0,31.0,-100.00,SSE,160,3.0,7.0,77,0.00,,,-99.99,,2013-09-22 06:52:00,